User: anonymous   Login
Location: Unspecified
(0.0000°N, 0.0000°E)
Time: 20:32:17
(UTC+00:00)
Language:

Landsat 7 - Orbit

View from above orbital plane
View from above orbital plane
View from above satellite
View from above satellite

Ground track
Ground track

The orbit data is extracted from the following two-line orbital elements,

1 25682U 99020A   17328.26310974  .00000324  00000-0  81968-4 0  9991
2 25682  98.1949  37.0603 0000698  80.2170 279.9102 14.57119830989909
Epoch (UTC): 24 November 2017 06:18:52
Eccentricity: 0.0000698
inclination: 98.1949°
perigee height: 702 km
apogee height: 703 km
right ascension of ascending node: 37.0603°
argument of perigee: 80.2170°
revolutions per day: 14.57119830
mean anomaly at epoch: 279.9102°
orbit number at epoch: 98990

The dashed part of the orbit path shows where the satellite is in the earth's shadow,  

DLR